Regional Weather Roundup
Issued by NWS

Home | Current Version | Previous Version | Graphics & Text | Print | Product List | Glossary On
Versions: 1 2 3 4 5 6 7 8 9 10 11 12 13 14 15 16 17 18 19 20 21 22 23 24 25 26 27 28 29 30 31 32 33 34 35 36 37 38 39 40 41 42 43 44 45 46 47 48 49 50
000
ASUS45 KTFX 282119
RWRMT
MONTANA REGIONAL WEATHER ROUNDUP
NATIONAL WEATHER SERVICE GREAT FALLS MT
300 PM MDT FRI AUG 28 2015

NOTE: "FAIR" INDICATES FEW OR NO CLOUDS BELOW 12000 FEET WITH NO
SIGNIFICANT WEATHER AND/OR OBSTRUCTIONS TO VISIBILITY.

MTZ001>007-043-282200-
WEST OF THE DIVIDE

CITY           SKY/WX    TMP DP  RH WIND       PRES   REMARKS
KALISPELL      CLOUDY    84  41  21 SW5       29.93S SMOKE
MISSOULA       CLOUDY    75  45  34 W7        29.98F HAZE
BUTTE          PTSUNNY   80  35  19 S5        30.16F HAZE
MULLAN PASS    CLOUDY    62  39  42 NW7       30.16F HAZE
DEER LODGE       N/A     84  36  17 S10G30    30.08F
EUREKA           N/A     84  39  20 S10G16    29.93R
HAMILTON         N/A     77  54  44 N5        29.96F
LIBBY            N/A     79  43  27 W3        29.95F
PLAINS           N/A     83  45  26 NW1       29.96S
RONAN            N/A     85  50  29 SW3       30.00S
THOMPSON FALLS   N/A     78  43  28 SW10      30.01R
$$

MTZ008-052>055-282200-
SOUTHWEST MONTANA

CITY           SKY/WX    TMP DP  RH WIND       PRES   REMARKS
BOZEMAN        CLOUDY    82  47  29 N3        30.10F HAZE
DILLON         CLOUDY    82  36  19 SW5       30.12F
W YELLOWSTONE  PTSUNNY   77  36  22 SW10G23   30.28F
THREE FORKS      N/A     80  48  32 CALM      30.07F
TWIN BRIDGES     N/A     81  45  28 SW3       30.09F
$$

MTZ009-010-012-014-046-048-049-054-282200-
EAST SLOPES AND CENTRAL MONTANA

CITY           SKY/WX    TMP DP  RH WIND       PRES   REMARKS
CUT BANK       CLOUDY    79  33  19 SE8       29.95F HAZE
GREAT FALLS    PTSUNNY   91  25   9 SW15G24   29.97F
MALMSTROM AFB  PTSUNNY   91  31  11 SW8G21    29.96F
HELENA         PTSUNNY   86  45  23 W8        30.00F SMOKE
CONRAD           N/A     85  40  20 SE7       29.99F
$$

MTZ011-013-016-021-045-047-050-051-282200-
NORTH CENTRAL MONTANA

CITY           SKY/WX    TMP DP  RH WIND       PRES   REMARKS
HAVRE          PTSUNNY   88  35  15 W12       29.91F HAZE
LEWISTOWN      PTSUNNY   85  32  15 CALM      30.05F
N BAR RANCH      N/A     84  28  13 NW13G21   30.09F
CHINOOK          N/A     88  43  20 W3        29.91F
FORT BENTON      N/A     91  34  13 S14G20    29.93F
$$

MTZ017>020-022>027-061-062-282200-
NORTHEAST MONTANA

CITY           SKY/WX    TMP DP  RH WIND       PRES   REMARKS
GLASGOW        PTSUNNY   88  39  17 NW14      29.91F HAZE
JORDAN           N/A     90  38  16 W15G22    29.95F
SIDNEY         PTSUNNY   91  48  22 W15       29.89S
WOLF POINT     CLOUDY    89  47  23 SW13      29.90S HAZE
MALTA            N/A     84  45  25 SW3       29.91S
PLENTYWOOD       N/A     88  45  22 W13G21    29.88S
POPLAR           N/A     90  43  19 SW14      29.90S
SCOBEY           N/A     84  45  25 SW16      29.90S
$$

MTZ028>42-056>058-282200-
SOUTHCENTRAL AND SOUTHEAST MONTANA

CITY           SKY/WX    TMP DP  RH WIND       PRES   REMARKS
BAKER          MOSUNNY   86  47  25 W14       29.99S HAZE
BILLINGS       PTSUNNY   86  43  22 SW8       30.06F HAZE
LIVINGSTON     MOSUNNY   88  37  16 SW15G24   30.09F
MILES CITY     CLOUDY    88  42  20 W8        29.97F HAZE
EKALAKA          N/A     82  45  27 W10       30.02S
FORSYTH          N/A     88  43  20 W8        29.99F
LAUREL           N/A     88  46  23 S3        30.04F
ROUNDUP          N/A     91  37  15 S12       29.94F
$$

REGIONAL REPORTS...DAKOTAS

CITY           SKY/WX    TMP DP  RH WIND       PRES   REMARKS
WILLISTON      MOSUNNY   90  48  23 W12       29.88F HAZE
MINOT          SUNNY     85  56  37 W5        29.85F
DICKINSON      MOSUNNY   90  46  21 CALM      29.91F
BEACH            N/A     86  45  23 W9        29.96F HAZE
CROSBY           N/A     86  54  32 S9        29.87S
BISMARCK       SUNNY     89  65  44 S10       29.87F HX  91
GRAND FORKS    PTSUNNY   84  68  58 SW20G25   29.81S
FARGO          SUNNY     83  66  56 S20       29.88F
BUFFALO SD       N/A     87  51  28 W12       29.93F
RAPID CITY     SUNNY     87  56  34 NE6       30.03F
$$

REGIONAL REPORTS...WYOMING/IDAHO/WASHINGTON

CITY           SKY/WX    TMP DP  RH WIND       PRES   REMARKS
GILLETTE       SUNNY     86  41  20 W9        30.11F
SHERIDAN       SUNNY     86  38  18 W5        30.08F
BUFFALO WY     SUNNY     85  38  18 SE7       30.15F
CODY           SUNNY     84  39  20 E12       30.13F
YELLOWSTONE LA   N/A     68  41  37 E3        30.38F
IDAHO FALLS    MOSUNNY   88  38  17 VRB6      30.15F
SALMON         PTSUNNY   82  45  26 NW6       30.00F
BOISE          PTSUNNY   89  41  18 NW13      29.97F
SPOKANE        LGT RAIN  76  47  35 S8        29.99S
$$

REGIONAL REPORTS...ALBERTA

CITY           SKY/WX    TMP DP  RH WIND       PRES   REMARKS
EDMONTON       SUNNY     81  41  24 W8        29.70F
CALGARY        CLOUDY    79  43  27 SW13      29.84F SMOKE
LETHBRIDGE     PTSUNNY   82  36  18 SW23G30   29.87F
MEDICINE HAT   CLOUDY    90  39  17 SW12      29.84F SMOKE
WATERTON GATE    N/A     81  39  22 SW17G31     N/A
CARDSTON         N/A     82  37  20 SW9         N/A
MILK RIVER       N/A     82  36  18 SW7         N/A
ONEFOUR          N/A     86  30  13 SW9G17      N/A
$$

REGIONAL REPORTS...SASKATCHEWAN

CITY           SKY/WX    TMP DP  RH WIND       PRES   REMARKS
SWIFT CURRENT  SUNNY     81  54  39 W8        29.88F HAZE
REGINA         CLOUDY    81  63  54 E6        29.86S
SASKATOON      PTSUNNY   81  59  47 SE7       29.84F
CYPRESS HILLS    N/A     79  34  19 W8          N/A
VAL MARIE        N/A     86  37  17 W10         N/A
ROCKGLEN         N/A     77  46  33 SW15        N/A
ASSINIBOIA       N/A     82  43  24 S15G21      N/A
$$



USA.gov is the U.S. government's official web portal to all federal, state and local government web resources and services.